Rome, NY

3:57 AM EST on February 14, 2016 (GMT -0500)
Griffiss

Weather History for KRME - July, 2013

Change the Weather History Date:

Thursday, July 18, 2013

  Actual Average Record
Temperature  
Mean Temperature 82 °F -  
Max Temperature 91 °F 86 °F 93 °F (1982)
Min Temperature 73 °F 60 °F 50 °F (1993)
Cooling Degree Days 17    
Growing Degree Days 32 (Base 50)    
Moisture  
Dew Point 72 °F    
Average Humidity 79    
Maximum Humidity 96    
Minimum Humidity 50    
Precipitation  
Precipitation 0.00 in - - ()
Sea Level Pressure  
Sea Level Pressure 30.02 in    
Wind  
Wind Speed 3 mph (NW)    
Max Wind Speed 13 mph    
Max Gust Speed -    
Visibility 10 miles    
Events      
Averages and records for this station are not official NWS values.
T = Trace of Precipitation, MM = Missing Value Source: NWS Daily Summary

Daily Weather History Graph

Daily Weather History Graph

Search for Another Location

Airport or City:

Trip Planner

Search our weather history database for the weather conditions in past years. The results will help you decide how hot, cold, wet, or windy it might be!

Date:

Astronomy

Jul. 18, 2013 Rise Set
Actual Time 5:38 AM EDT 8:37 PM EDT
Civil Twilight 5:04 AM EDT 9:10 PM EDT
Nautical Twilight 4:20 AM EDT 9:54 PM EDT
Astronomical Twilight 3:29 AM EDT 10:44 PM EDT
Moon 4:30 PM EDT (7/18) 1:28 AM EDT (7/18)
Length of Visible Light 16h 06m
Length of Day
14h 58m
Waxing Gibbous, 77% of the Moon is Illuminated
Jul 18
Waxing Gibbous
Jul 22
Full
Jul 29
Last Quarter
Aug 6
New
Aug 14
First Quarter

Hourly Weather History & Observations

Time (EDT) Temp. Heat Index Dew Point Humidity Pressure Visibility Wind Dir Wind Speed Gust Speed Precip Events Conditions
12:53 AM 77.0 °F - 73.9 °F 90% 30.05 in 10.0 mi Calm Calm - N/A   Partly Cloudy
1:53 AM 75.0 °F - 72.0 °F 90% 30.05 in 10.0 mi ENE 3.5 mph - N/A   Clear
2:53 AM 75.0 °F - 72.0 °F 90% 30.05 in 10.0 mi North 3.5 mph - N/A   Clear
3:53 AM 73.9 °F - 72.0 °F 93% 30.05 in 10.0 mi Calm Calm - N/A   Clear
4:53 AM 73.0 °F - 71.1 °F 93% 30.06 in 10.0 mi Calm Calm - N/A   Partly Cloudy
5:11 AM 73.0 °F - 72.0 °F 96% 30.07 in 10.0 mi Calm Calm - N/A   Mostly Cloudy
5:53 AM 73.0 °F - 71.1 °F 93% 30.06 in 10.0 mi Calm Calm - N/A   Overcast
6:53 AM 73.9 °F - 72.0 °F 93% 30.06 in 10.0 mi North 3.5 mph - N/A   Scattered Clouds
7:53 AM 75.0 °F - 73.0 °F 94% 30.07 in 10.0 mi NW 3.5 mph - N/A   Scattered Clouds
8:53 AM 80.1 °F 85.1 °F 75.0 °F 85% 30.07 in 10.0 mi NNW 4.6 mph - N/A   Clear
9:53 AM 82.9 °F 90.2 °F 75.0 °F 77% 30.06 in 10.0 mi West 8.1 mph - N/A   Scattered Clouds
10:53 AM 84.9 °F 91.4 °F 73.0 °F 67% 30.06 in 10.0 mi WNW 10.4 mph - N/A   Partly Cloudy
11:53 AM 87.1 °F 93.6 °F 72.0 °F 61% 30.05 in 10.0 mi West 10.4 mph - N/A   Partly Cloudy
2:53 PM 91.0 °F 96.6 °F 70.0 °F 50% 30.01 in 10.0 mi West 10.4 mph - N/A   Partly Cloudy
3:53 PM 89.1 °F 94.1 °F 70.0 °F 53% 29.99 in 10.0 mi WNW 11.5 mph - N/A   Scattered Clouds
4:53 PM 88.0 °F 93.8 °F 71.1 °F 57% 29.96 in 10.0 mi West 12.7 mph - N/A   Clear
5:53 PM 88.0 °F 93.8 °F 71.1 °F 57% 29.98 in 10.0 mi West 9.2 mph - N/A   Clear
6:53 PM 87.1 °F 93.6 °F 72.0 °F 61% 29.97 in 10.0 mi WSW 6.9 mph - N/A   Partly Cloudy
7:53 PM 82.0 °F 86.7 °F 72.0 °F 71% 29.97 in 10.0 mi Calm Calm - N/A   Clear
8:53 PM 80.1 °F 84.2 °F 73.0 °F 79% 29.95 in 10.0 mi Calm Calm - N/A   Clear
9:53 PM 77.0 °F - 73.0 °F 88% 29.96 in 10.0 mi Calm Calm - N/A   Clear
10:53 PM 75.9 °F - 73.0 °F 91% 29.95 in 10.0 mi ENE 3.5 mph - N/A   Clear
11:53 PM 75.9 °F - 72.0 °F 87% 29.94 in 10.0 mi East 4.6 mph - N/A   Clear